STARLINK-2087

Last updated on Sat Apr 24 2021 00:02:02 GMT+0000 (Coordinated Universal Time)

1 47977U 21024A 21113.25001157 -.01178568 00000-0 -18934-1 0 9996 2 47977 53.0466 56.1794 0001152 78.2703 202.9235 15.55381036 1818

Satellite not in orbit